View from above orbital plane
|
View from above satellite
|
Ground track
|
The orbit data is extracted from the following two-line orbital elements,
1 8344U 75094B 21058.13802155 .00000053 00000-0 25405-4 0 9993
2 8344 74.0578 156.0892 0020665 78.0228 282.3241 14.39173227380023
Epoch (UTC): | 27 February 2021 03:18:45 |
Eccentricity: | 0.0020665 |
inclination: | 74.0578° |
perigee height: | 746 km |
apogee height: | 776 km |
right ascension of ascending node: | 156.0892° |
argument of perigee: | 78.0228° |
revolutions per day: | 14.39173227 |
mean anomaly at epoch: | 282.3241° |
orbit number at epoch: | 38002 |
The dashed part of the orbit path shows where the satellite is in the earth's shadow,
|
|